Location: Unspecified
(0.0000°N, 0.0000°E)
Time: 03:53:21
(UTC+00:00)

ISS - Pass Details

Date: 13 November 2019
Orbit: 412 x 421 km, 51.6° (Epoch: 12 November)

Event Time Altitude Azimuth Distance (km) Brightness Sun altitude
Rises 19:39:49 0° 236° (WSW) 2,345 1.2 -27.3°
Reaches altitude 10° 19:42:12 10° 252° (WSW) 1,482 0.0 -27.9°
Enters shadow 19:43:37 18° 273° (W) 1,088 -1.0 -28.2°
